{"data":{"norad_id":53650,"epoch":"2026-09-20T22:04:45.239520Z","epoch_age_seconds":45000,"freshness":"FRESH","line1":"1 53650U 22105C   26263.91996805  .00000519  00000+0  39896-4 0  9998","line2":"2 53650  97.2857 137.7161 0002028  85.8944 274.2515 15.05654490222602","mean_motion":15.0565449,"eccentricity":0.0002028,"inclination_deg":97.2857,"raan_deg":137.7161,"arg_perigee_deg":85.8944,"mean_anomaly_deg":274.2515,"bstar":3.9896e-5,"rev_number":22260,"period_min":95.639471709077,"perigee_km":548.09245719093,"apogee_km":550.90230569604,"semimajor_km":6927.6343814435,"source":"CELESTRAK","updated_at":"2026-09-21T09:00:32.949105Z"}}